Regional Weather Roundup
Issued by NWS

Home | Current Version | Previous Version | Graphics & Text | Print | Product List | Glossary On
Versions: 1 2 3 4 5 6 7 8 9 10 11 12 13 14 15 16 17 18 19 20 21 22 23 24 25 26 27 28 29 30 31 32 33 34 35 36 37 38 39 40 41 42 43 44 45 46 47 48 49 50
000
ASUS45 KTFX 080810
RWRMT
MONTANA REGIONAL WEATHER ROUNDUP
NATIONAL WEATHER SERVICE GREAT FALLS MT
100 AM MST MON FEB 08 2016

NOTE: "FAIR" INDICATES FEW OR NO CLOUDS BELOW 12000 FEET WITH NO
SIGNIFICANT WEATHER AND/OR OBSTRUCTIONS TO VISIBILITY.

MTZ001>007-043-080900-
WEST OF THE DIVIDE

CITY           SKY/WX    TMP DP  RH WIND       PRES   REMARKS
KALISPELL      CLOUDY    31  27  85 CALM      30.61R
MISSOULA       CLOUDY    35  23  61 E3        30.62S
BUTTE          CLOUDY    27  19  72 N5        30.56R
MULLAN PASS    PTCLDY    31  21  66 SW8       30.54F WCI  23
ANACONDA         N/A     32  19  59 NE3       30.58R
DEER LODGE       N/A     32  25  74 S3        30.58F
HAMILTON         N/A     34  25  69 CALM      30.59F
LIBBY            N/A     28  25  86 CALM      30.64R
PLAINS           N/A     30  24  78 CALM      30.58S
$$

MTZ008-052>055-080900-
SOUTHWEST MONTANA

CITY           SKY/WX    TMP DP  RH WIND       PRES   REMARKS
BOZEMAN        CLOUDY    32  24  72 VRB3      30.54R
DILLON         CLOUDY    34  21  59 SW13      30.54R WCI  25
ENNIS          CLEAR     32  19  59 VRB3      30.58R
TWIN BRIDGES     N/A     27  17  65 W1        30.48R
$$

MTZ009-010-012-014-046-048-049-054-080900-
EAST SLOPES AND CENTRAL MONTANA

CITY           SKY/WX    TMP DP  RH WIND       PRES   REMARKS
CUT BANK       PTCLDY    37  23  56 W23G29    30.37S WCI  26
GREAT FALLS    CLOUDY    32  20  61 SW14      30.41F WCI  22
MALMSTROM AFB  CLOUDY    28  20  71 SW10      30.42F WCI  18
HELENA         CLOUDY    40  24  53 W13       30.51R
CHOTEAU          N/A     39  25  56 W15G22    30.40F WCI  31
CONRAD           N/A     20  16  84 S3        30.36F
$$

MTZ011-013-016-021-045-047-050-051-080900-
NORTH CENTRAL MONTANA

CITY           SKY/WX    TMP DP  RH WIND       PRES   REMARKS
HAVRE          CLOUDY    21  15  78 NW3       30.42S
LEWISTOWN      CLOUDY    25  13  60 SW13      30.39F WCI  14
N BAR RANCH      N/A     21  10  63 CALM      30.39F
CHINOOK          N/A     18  12  79 CALM      30.43R
$$

MTZ017>020-022>027-061-062-080900-
NORTHEAST MONTANA

CITY           SKY/WX    TMP DP  RH WIND       PRES   REMARKS
GLASGOW        CLOUDY    22  16  78 W9        30.38F WCI  12
JORDAN           N/A     24  17  74 W7        30.39F WCI  16
SIDNEY         CLEAR     27  14  59 NW13      30.33F WCI  16
WOLF POINT     CLEAR     24  16  71 W9        30.38S WCI  14
PLENTYWOOD       N/A     21  18  86 W10       30.31S WCI  10
POPLAR           N/A     27  14  59 NW6       30.36F WCI  20
$$

MTZ028>42-056>058-080900-
SOUTHCENTRAL AND SOUTHEAST MONTANA

CITY           SKY/WX    TMP DP  RH WIND       PRES   REMARKS
BAKER          CLEAR     22  13  68 W10       30.33F WCI  11
BILLINGS       CLOUDY    30  11  45 CALM      30.43F
LIVINGSTON     CLOUDY    41  16  36 W16       30.46F
MILES CITY     CLEAR     23  15  71 W12       30.39F WCI  12
EKALAKA          N/A     23  11  60 W8        30.26F WCI  14
FORSYTH          N/A     27  12  54 SW9       30.42F WCI  17
LAUREL           N/A     31   9  39 CALM      30.37S
ROUNDUP          N/A     23   9  55 CALM      30.28F
$$

REGIONAL REPORTS...DAKOTAS

CITY           SKY/WX    TMP DP  RH WIND       PRES   REMARKS
WILLISTON      CLEAR     25  17  72 NW18G28   30.29F WCI  11
MINOT          CLEAR     27  16  63 NW21G29   30.18S WCI  13
DICKINSON      CLEAR     18  13  80 W10       30.25F WCI   6
BEACH            N/A     21  16  79 NW14      30.33F WCI   8
CROSBY           N/A     23  21  93 NW14      30.28F WCI  11
TIOGA            N/A     19  19 100 NW12      30.29F WCI   7
WATFORD CITY     N/A     23  18  80 W6        30.30F WCI  16
BISMARCK       CLEAR     29  17  61 NW21G32   30.20R WCI  16
GRAND FORKS    LGT SNOW  15   9  76 N37G46    30.07R BLWGSNOWWCI  -7
FARGO          LGT SNOW  15  11  83 NW25G33   30.05R VSB 3/4 WCI  -4
BUFFALO SD       N/A     27  13  55 NW25G36   30.21F WCI  12
RAPID CITY     CLEAR     30  10  43 N29G39    30.29S WCI  15
$$

REGIONAL REPORTS...WYOMING/IDAHO/WASHINGTON

CITY           SKY/WX    TMP DP  RH WIND       PRES   REMARKS
GILLETTE       CLEAR     22   9  57 W15       30.37F WCI   9
SHERIDAN       MOCLDY    28  15  58 W8        30.42F WCI  20
BUFFALO WY     CLOUDY    25  11  55 S3        30.39S
CODY           CLOUDY    25  12  58 CALM      30.41R
YELLOWSTONE LA   N/A     22  15  75 CALM      30.55S
IDAHO FALLS    CLOUDY    21  19  92 N3        30.67S FOG
SALMON         CLOUDY    19  16  86 CALM      30.70S
BOISE          CLEAR     34  31  88 S7        30.67S WCI  28
SPOKANE        PTCLDY    32  29  88 NE6       30.62S WCI  26
$$

REGIONAL REPORTS...ALBERTA

CITY           SKY/WX    TMP DP  RH WIND       PRES   REMARKS
EDMONTON       CLOUDY    28  19  69 CALM      30.31S
CALGARY        PTCLDY    27  12  54 S3        30.28F
LETHBRIDGE     CLEAR     39  25  56 W16       30.34F WCI  30
MEDICINE HAT   CLEAR     21  16  79 S3        30.38F
WATERTON GATE    N/A     37  21  52 SW33G46     N/A  WCI  24
CARDSTON         N/A     43  21  42 W13G21      N/A
MILK RIVER       N/A     18  14  86 NW1         N/A
ONEFOUR          N/A     21  12  68 SE5         N/A
$$

REGIONAL REPORTS...SASKATCHEWAN

CITY           SKY/WX    TMP DP  RH WIND       PRES   REMARKS
SWIFT CURRENT  MOCLDY    19  16  86 W13       30.34R WCI   7
REGINA         CLEAR     18  16  93 NW10      30.31R WCI   6
SASKATOON      PTCLDY    16  12  86 NW10      30.35R WCI   3
VAL MARIE        N/A     19  12  73 NW5         N/A
ROCKGLEN         N/A     23  14  68 NW13G20     N/A  WCI  11
ASSINIBOIA       N/A     25  18  74 SW3         N/A
$$




USA.gov is the U.S. government's official web portal to all federal, state and local government web resources and services.